Weather History for KBED - April, 2012

Change the Weather History Date:

Saturday, April 14, 2012

  Actual Average (KBOS) Record (KBOS)
Temperature  
Mean Temperature 52 °F 48 °F  
Max Temperature 70 °F 55 °F 81 °F (1945)
Min Temperature 36 °F 40 °F 26 °F (1940)
Degree Days  
Heating Degree Days 12 17  
Month to date heating degree days 276  
Since 1 July heating degree days 5147  
Cooling Degree Days 0 0  
Month to date cooling degree days 0  
Year to date cooling degree days 0  
Growing Degree Days 2 (Base 50)    
Moisture  
Dew Point 26 °F    
Average Humidity 35    
Maximum Humidity 73    
Minimum Humidity 16    
Precipitation  
Precipitation 0.00 in 0.13 in 1.63 in (1895)
Month to date precipitation 1.92  
Year to date precipitation 12.85  
Sea Level Pressure  
Sea Level Pressure 30.08 in    
Wind  
Wind Speed 5 mph (WSW)    
Max Wind Speed 14 mph    
Max Gust Speed 18 mph    
Visibility 10 miles    
Events      
T = Trace of Precipitation, MM = Missing Value Source: NWS Daily Summary

Daily Weather History Graph

Daily Weather History Graph

Search for Another Location

Airport or City:

Trip Planner

Search our weather history database for the weather conditions in past years. The results will help you decide how hot, cold, wet, or windy it might be!

Date:

Astronomy

Apr. 14, 2012 Rise Set
Actual Time 6:04 AM EDT 7:26 PM EDT
Civil Twilight 5:35 AM EDT 7:55 PM EDT
Nautical Twilight 5:00 AM EDT 8:30 PM EDT
Astronomical Twilight 4:23 AM EDT 9:08 PM EDT
Moon 2:34 AM EDT (4/14) 1:08 PM EDT (4/14)
Length of Visible Light 14h 19m
Length of Day
13h 21m
Last Quarter, 37% of the Moon is Illuminated
Apr 14
Last Quarter
Apr 21
New
Apr 29
First Quarter
May 5
Full
May 12
Last Quarter

Hourly Weather History & Observations

Time (EDT) Temp. Windchill Dew Point Humidity Pressure Visibility Wind Dir Wind Speed Gust Speed Precip Events Conditions
12:56 AM 50.0 °F - 27.0 °F 41% 30.10 in 10.0 mi West 5.8 mph - N/A   Clear
1:56 AM 45.0 °F 43.5 °F 26.1 °F 48% 30.11 in 10.0 mi WSW 3.5 mph - N/A   Clear
2:56 AM 44.1 °F - 27.0 °F 51% 30.11 in 10.0 mi Calm Calm - N/A   Clear
3:56 AM 39.9 °F - 27.0 °F 60% 30.11 in 10.0 mi Calm Calm - N/A   Clear
4:56 AM 37.9 °F - 27.0 °F 65% 30.13 in 10.0 mi Calm Calm - N/A   Clear
5:56 AM 36.0 °F - 28.0 °F 73% 30.14 in 10.0 mi Calm Calm - N/A   Clear
6:56 AM 36.0 °F - 28.0 °F 73% 30.15 in 10.0 mi Calm Calm - N/A   Clear
7:56 AM 46.9 °F - 28.9 °F 50% 30.17 in 10.0 mi WSW 3.5 mph - N/A   Clear
8:56 AM 55.0 °F - 27.0 °F 34% 30.17 in 10.0 mi West 9.2 mph - N/A   Clear
9:56 AM 59.0 °F - 28.0 °F 31% 30.17 in 10.0 mi NW 5.8 mph - N/A   Clear
10:56 AM 62.1 °F - 26.1 °F 25% 30.15 in 10.0 mi WNW 6.9 mph - N/A   Clear
11:56 AM 66.0 °F - 25.0 °F 21% 30.13 in 10.0 mi WNW 13.8 mph 18.4 mph N/A   Clear
12:56 PM 66.0 °F - 25.0 °F 21% 30.09 in 10.0 mi Calm Calm - N/A   Clear
1:56 PM 66.9 °F - 25.0 °F 21% 30.06 in 10.0 mi SW 9.2 mph - N/A   Clear
2:56 PM 69.1 °F - 23.0 °F 18% 30.04 in 10.0 mi WSW 4.6 mph - N/A   Clear
3:56 PM 68.0 °F - 21.2 °F 17% 29.98 in 10.0 mi Variable 6.9 mph 16.1 mph N/A   Clear
4:56 PM 68.0 °F - 19.9 °F 16% 30.01 in 10.0 mi West 13.8 mph - N/A   Clear
5:56 PM 68.0 °F - 19.9 °F 16% 30.01 in 10.0 mi West 6.9 mph - N/A   Clear
6:56 PM 63.0 °F - 24.1 °F 23% 30.00 in 10.0 mi SSW 5.8 mph - N/A   Clear
7:56 PM 62.1 °F - 23.0 °F 22% 30.00 in 10.0 mi SW 5.8 mph - N/A   Clear
8:56 PM 60.1 °F - 21.9 °F 23% 30.02 in 10.0 mi SW 3.5 mph - N/A   Partly Cloudy
9:56 PM 59.0 °F - 28.0 °F 31% 30.02 in 10.0 mi SSW 10.4 mph - N/A   Overcast
10:56 PM 57.9 °F - 28.9 °F 33% 30.02 in 10.0 mi SSW 5.8 mph - N/A   Overcast
11:56 PM 57.0 °F - 30.9 °F 37% 30.02 in 10.0 mi SSW 5.8 mph - N/A   Mostly Cloudy